Theta_e
337 336 335 336 337 338 342 345 345 347 346 347 348 349 347 346 345 350 352 353 353 353 353 353 349 354 354 353 353 352 352 351 355 353 352 352 352 351 351 351 350 350 349
335 334 335 335 336 337 338 341 343 344 346 347 349 348 347 345 343 351 352 351 350 351 353 352 351 351 354 353 350 343 341 348 354 353 348 353 352 351 353 352 352 351 350
337 333 335 335 335 337 338 338 340 342 345 348 349 346 344 346 350 351 352 352 352 352 352 352 353 353 352 352 348 343 348 348 351 355 350 352 352 346 347 351 353 352 352
337 335 337 335 336 337 339 339 339 341 345 348 345 338 343 350 351 351 351 353 352 352 351 353 354 353 352 353 350 341 341 346 348 353 354 353 348 353 354 348 352 352 352
339 336 338 336 337 337 340 340 339 341 344 346 343 339 344 347 348 349 353 353 351 352 352 353 355 355 351 352 352 350 347 350 349 351 354 355 353 351 348 352 340 350 351
340 337 339 338 338 338 340 341 341 341 344 345 344 342 345 346 348 351 353 351 350 355 353 354 355 348 345 353 353 353 353 354 355 354 355 356 353 349 345 344 342 344 347
340 338 338 340 340 340 340 341 341 343 343 344 344 343 346 348 350 352 353 353 353 354 356 354 354 355 355 355 355 354 355 357 357 357 357 357 357 354 354 347 347 346 346
340 339 337 341 342 342 341 341 342 342 342 343 344 344 346 348 349 352 354 354 353 352 354 353 353 353 354 356 357 356 357 357 358 358 358 359 359 358 357 354 349 351 345
344 342 337 341 343 343 344 342 342 342 342 344 344 344 345 348 349 351 353 356 354 353 352 354 357 357 357 357 357 358 358 356 357 357 357 354 352 352 357 357 354 351 356
341 340 338 342 344 345 345 345 345 344 345 346 346 345 346 347 349 350 351 353 357 355 355 356 359 358 358 358 358 357 358 357 354 352 352 344 341 342 348 355 356 355 349
342 341 341 343 345 346 346 347 348 347 347 348 348 349 349 349 350 351 353 353 355 356 358 359 358 357 357 357 358 358 357 357 351 348 351 345 343 340 338 348 356 356 353
345 345 344 343 343 344 347 348 348 348 348 349 349 351 353 354 353 354 356 357 355 355 356 356 354 354 356 356 356 355 350 349 342 341 341 342 338 336 337 336 351 358 357
344 342 341 342 342 343 344 343 347 348 348 351 352 355 356 356 354 353 352 350 349 350 351 349 347 346 346 343 340 338 338 338 337 336 335 334 334 334 335 337 348 357 356
343 342 342 342 342 342 343 345 349 349 352 352 344 338 337 337 337 339 340 339 337 339 337 338 338 337 337 335 335 337 337 336 336 335 335 333 334 335 336 338 331 339 358
343 342 341 340 339 339 340 340 343 344 342 341 336 334 332 334 335 338 337 338 338 340 340 340 338 338 338 337 337 338 338 338 338 335 332 333 337 335 327 330 330 340 351
343 342 341 340 340 339 338 339 339 340 340 337 338 341 336 332 333 334 336 337 335 333 330 329 328 327 329 332 332 332 336 336 335 338 339 339 338 334 326 325 331 331 338
343 342 341 341 340 338 338 337 340 340 340 339 340 342 337 336 332 333 334 334 327 329 329 327 325 324 324 326 327 327 325 327 327 326 324 325 325 325 327 330 331 331 334
342 341 338 337 336 338 337 337 339 337 333 333 332 333 336 337 336 334 329 326 328 326 324 324 324 324 326 327 327 327 328 329 329 328 329 330 329 329 330 331 333 335 338
340 340 338 334 334 334 333 333 335 332 329 329 329 329 328 328 328 328 329 326 325 326 326 326 327 327 327 324 323 327 326 324 324 323 323 327 332 330 329 331 333 336 333
338 335 334 334 332 332 332 333 328 328 328 328 327 326 325 326 325 325 325 325 325 325 324 323 324 322 321 321 321 321 321 321 321 322 323 323 323 329 337 334 334 336 335
334 333 333 331 332 331 329 328 327 327 327 326 325 325 325 325 325 324 324 324 323 323 323 323 322 321 321 320 319 320 319 320 320 321 321 322 323 322 326 337 336 336 333
330 331 326 326 329 328 327 327 327 327 326 325 326 326 325 323 323 322 321 321 320 321 321 321 321 321 321 321 320 319 319 320 320 321 321 321 322 322 323 325 335 336 329
327 325 326 326 326 327 327 327 326 326 326 325 323 322 320 319 318 318 318 319 319 319 319 319 320 320 321 321 320 320 319 320 320 321 321 321 322 322 323 323 323 328 325
326 326 326 325 324 325 325 324 323 323 322 321 319 318 318 317 317 316 316 316 317 317 317 318 318 318 318 319 320 320 320 321 321 321 322 322 322 322 322 323 323 322 323
326 326 325 323 322 321 321 321 320 319 317 316 316 316 316 316 316 316 315 315 316 317 318 318 318 317 317 319 320 320 320 320 321 321 321 321 321 321 321 321 321 321 322
324 324 323 321 320 319 316 315 315 315 315 315 314 314 314 316 316 315 314 314 315 315 317 317 318 319 319 319 319 319 319 319 320 319 318 318 319 319 319 319 320 321 321
Wind_Speed
19 21 28 33 35 34 36 37 35 34 31 27 26 25 25 22 20 17 14 13 12 12 10 10 7 6 8 7 7 9 7 4 5 3 3 5 3 1 4 6 8 7 7
10 12 23 26 34 39 39 37 37 35 34 32 29 29 27 24 19 14 12 14 14 13 11 10 7 8 5 5 8 10 5 2 3 2 2 3 3 5 8 10 12 11 10
14 9 16 27 32 32 40 41 39 37 36 34 30 23 17 17 15 14 13 11 15 16 13 11 10 9 8 7 8 6 1 3 2 2 1 1 2 4 5 9 13 13 13
11 11 15 21 30 39 37 41 40 39 38 34 29 25 22 19 18 15 11 12 9 11 13 13 10 9 10 9 9 6 6 4 5 4 3 3 1 1 3 4 8 15 15
17 15 16 28 37 31 34 40 40 37 39 35 31 26 24 20 19 15 12 11 10 10 13 15 14 14 10 11 11 9 6 7 6 6 5 3 3 5 2 3 5 10 16
14 12 21 22 25 28 31 36 39 38 38 35 32 29 25 22 20 17 14 11 12 10 12 13 13 11 15 13 14 11 9 9 9 9 9 9 6 4 5 3 5 5 8
13 11 11 17 22 28 32 35 38 38 38 37 35 33 28 25 23 18 14 13 9 9 7 7 15 18 21 19 15 15 13 11 12 12 11 12 14 11 9 4 4 2 4
8 13 12 17 23 27 30 33 36 37 37 36 35 33 29 25 23 20 16 15 16 12 7 8 11 15 15 12 15 15 12 13 13 14 14 13 13 13 14 10 5 3 3
6 9 8 19 24 26 29 35 35 36 36 35 34 33 31 28 24 22 19 15 15 13 11 11 8 8 7 7 10 11 9 8 7 5 6 9 16 22 20 16 16 7 4
3 6 9 17 21 24 24 25 31 36 37 34 33 32 33 31 27 22 21 19 14 12 13 13 11 8 6 8 11 11 9 9 5 2 4 10 16 25 27 28 22 18 12
5 3 3 9 12 14 20 23 24 27 29 29 30 28 28 28 26 24 21 17 16 14 13 14 16 14 12 13 14 14 13 12 8 5 11 7 10 24 33 31 27 19 18
9 9 9 14 9 8 21 25 24 28 30 24 19 18 21 20 20 19 17 14 14 14 14 13 12 13 11 10 10 11 9 8 7 3 2 2 1 12 45 38 32 24 22
10 8 9 11 14 15 11 4 15 18 11 11 13 11 8 9 10 8 5 3 1 3 5 5 4 4 1 2 3 4 5 10 10 8 8 7 9 21 21 28 29 26 22
7 8 8 9 10 16 20 19 16 14 19 27 34 36 30 24 20 15 13 10 7 5 5 3 1 1 4 5 6 3 6 5 8 12 12 13 7 15 28 19 26 27 23
10 10 7 7 13 19 24 28 27 28 34 43 44 38 40 30 18 19 13 12 7 5 4 2 2 1 2 5 8 6 5 7 8 5 2 3 8 13 16 20 24 22 20
11 12 11 14 17 23 26 28 29 25 29 27 29 25 26 32 24 21 24 17 8 3 2 4 4 4 5 5 7 8 5 5 9 12 11 12 16 20 21 21 21 22 20
13 12 13 16 24 27 33 31 31 26 21 18 14 8 6 10 14 19 19 12 9 6 3 3 4 5 6 7 7 8 9 12 11 13 14 18 21 21 21 21 23 22 21
9 6 7 9 16 27 33 36 27 25 20 11 11 13 14 19 9 12 15 12 8 8 8 7 6 7 7 7 8 9 8 8 8 7 10 14 16 18 18 19 20 18 15
6 6 3 7 16 19 37 25 27 22 27 13 13 12 17 20 10 8 6 4 6 7 6 8 7 6 5 6 12 8 5 5 6 6 6 9 11 13 16 18 18 17 17
12 11 13 12 14 22 31 24 26 23 20 13 12 16 17 10 2 2 2 3 6 8 7 7 5 7 10 11 10 11 13 13 14 13 13 12 11 12 15 16 15 15 17
18 17 17 15 14 17 21 22 20 18 16 14 14 14 11 5 2 3 5 6 6 9 9 8 8 11 12 14 13 11 14 14 16 17 16 15 14 15 15 15 13 15 13
17 20 22 16 14 14 17 16 13 11 14 13 13 12 8 4 2 5 7 9 9 11 10 10 12 11 10 11 13 13 13 13 13 17 17 20 18 19 19 20 18 16 16
16 22 28 20 13 10 12 15 11 10 10 11 10 8 6 3 0 2 4 6 5 6 8 9 10 11 12 14 14 14 12 15 16 16 17 18 17 18 22 21 22 21 22
15 18 23 20 16 14 15 16 11 9 6 7 5 4 4 4 4 6 7 8 8 9 9 8 11 13 17 17 13 15 15 15 19 17 20 21 18 17 19 21 21 20 20
19 20 20 18 16 12 11 8 6 4 5 6 6 5 6 6 7 9 10 11 12 11 12 15 14 13 12 14 14 14 16 17 17 18 20 19 18 17 20 21 21 22 21
19 18 16 15 11 8 7 7 6 6 7 8 10 11 11 11 9 12 14 15 16 17 16 15 14 15 15 16 17 17 18 20 19 17 15 13 15 15 17 19 21 22 22
Wind_Direction
224 217 213 211 217 222 222 220 219 222 223 223 225 221 227 235 239 244 267 274 274 261 264 270 266 276 262 270 276 297 299 308 342 331 23 52 57 210 245 257 263 292 269
215 219 217 210 210 215 221 222 222 223 222 219 218 219 228 238 236 247 263 273 270 270 265 261 262 248 260 258 284 296 289 276 9 354 30 10 329 274 266 265 260 281 269
220 208 198 206 212 210 216 220 222 221 218 217 220 227 230 222 223 238 260 294 272 256 261 260 268 257 252 273 289 305 236 320 314 5 105 79 258 332 302 273 261 274 271
208 207 198 196 203 215 214 216 219 220 218 215 218 220 215 212 226 242 263 297 298 255 257 250 266 266 268 280 284 276 282 289 324 338 319 291 347 284 328 330 276 263 261
207 208 198 200 208 205 208 213 215 217 220 214 218 220 222 224 226 236 261 287 290 278 255 250 248 252 255 251 274 278 277 270 282 288 298 294 277 257 188 274 299 274 266
211 203 205 203 203 198 201 207 213 213 218 216 218 219 220 220 224 229 245 265 272 279 263 251 240 265 251 253 255 267 264 259 261 276 277 274 259 252 219 234 273 267 302
205 203 192 195 194 191 194 200 209 213 215 218 219 221 220 218 222 234 247 252 267 273 267 237 240 257 267 268 249 255 258 268 269 268 275 275 276 280 283 261 283 296 294
214 207 198 196 194 197 191 194 203 211 215 219 222 224 228 226 228 234 243 260 268 269 266 253 261 268 274 249 236 249 263 273 283 288 285 284 284 285 282 273 250 282 260
237 237 202 195 195 195 195 195 201 208 216 219 220 224 230 232 232 237 245 256 255 266 270 259 277 274 261 225 231 240 258 270 284 315 3 9 358 344 302 283 269 255 295
216 211 197 194 193 196 200 194 201 205 216 219 223 225 230 232 234 241 245 247 257 262 263 247 250 250 222 210 212 223 229 233 235 205 118 60 30 15 349 316 290 263 248
336 10 92 136 175 183 191 195 200 206 219 223 225 226 232 235 235 237 242 245 249 258 259 250 251 248 245 243 241 232 230 232 220 215 226 229 327 346 334 328 298 271 255
35 23 36 54 66 187 192 198 202 212 224 224 222 230 240 242 237 230 235 247 254 263 270 272 275 273 259 247 241 221 209 215 200 236 211 148 351 317 289 293 298 287 272
68 50 47 45 50 53 57 166 203 214 200 184 175 147 150 184 189 174 131 99 336 287 285 277 312 349 32 142 178 197 232 265 265 255 239 241 304 13 255 258 297 293 279
63 56 56 66 73 80 75 75 91 143 144 123 97 76 62 55 50 56 67 49 21 2 26 6 244 270 302 343 344 327 290 292 264 261 258 238 235 179 204 263 291 291 285
87 86 84 83 87 80 78 79 83 99 108 110 97 78 57 40 9 351 359 351 339 332 16 358 309 159 249 314 301 300 300 298 284 271 275 260 261 263 284 283 292 289 280
116 119 119 109 88 90 88 88 95 97 109 108 111 89 40 39 28 360 296 340 7 334 307 294 311 338 326 298 297 296 284 282 291 287 279 274 272 275 279 268 273 277 276
151 145 140 133 125 116 116 109 113 110 111 135 128 118 134 164 180 226 274 291 299 312 298 303 321 320 299 295 301 294 294 294 281 274 275 274 274 275 272 273 275 273 270
147 125 116 117 110 125 119 116 121 117 105 100 97 102 119 146 151 223 230 251 272 289 304 311 310 303 306 316 326 307 291 285 285 291 284 274 276 277 279 279 280 279 277
100 122 174 150 126 132 110 116 125 116 113 149 124 111 102 91 128 187 207 267 287 290 309 316 310 302 339 6 350 341 353 330 314 312 324 332 319 301 280 273 268 268 272
95 78 100 110 105 96 101 114 101 117 115 127 115 80 70 74 99 267 280 283 288 294 311 313 328 357 342 333 339 322 326 320 322 304 305 311 314 326 315 287 265 263 275
89 92 83 79 83 90 107 110 113 121 126 111 90 82 83 75 26 356 350 336 324 323 324 318 325 332 334 327 323 321 320 316 314 306 299 300 307 306 307 303 272 266 281
103 107 99 93 106 119 123 116 115 127 109 105 110 107 110 103 352 332 327 321 315 309 305 305 305 306 315 316 326 319 321 326 320 310 307 294 297 296 297 288 287 282 276
129 128 125 121 110 129 134 114 114 119 118 114 107 110 111 110 11 316 324 319 314 312 312 308 307 309 315 318 323 325 324 321 317 311 317 316 303 302 295 295 286 280 282
105 116 114 117 114 124 121 111 104 103 103 95 80 62 50 44 50 24 9 346 335 332 327 323 317 315 313 326 330 325 320 315 316 317 311 313 316 308 298 295 297 293 284
125 135 126 126 130 125 102 88 70 38 43 50 46 34 22 22 26 14 1 360 359 344 325 323 322 320 318 330 330 326 321 319 320 314 310 313 305 305 304 304 301 302 302
131 128 133 132 113 84 75 70 58 52 54 55 33 17 9 12 10 3 355 356 351 341 333 327 325 335 335 335 336 334 330 326 322 317 306 303 301 297 298 302 304 303 299